Time,TemperatureF,DewpointF,PressureIn,WindDirection,WindDirectionDegrees,WindSpeedMPH,WindSpeedGustMPH,Humidity,HourlyPrecipIn,Conditions,Clouds,dailyrainin,SoftwareType,DateUTC
2013-02-05 00:00:00,29.5,25.6,29.88,North,0,0.0,2.0,85,0.00,,---,0.00,VWS V14.01,2013-02-05 06:00:00,
2013-02-05 00:30:00,29.1,25.2,29.87,North,0,0.0,1.0,85,0.00,,---,0.00,VWS V14.01,2013-02-05 06:30:00,
2013-02-05 01:00:00,27.8,24.4,29.86,North,0,0.0,0.0,87,0.00,,---,0.00,VWS V14.01,2013-02-05 07:00:00,
2013-02-05 01:30:00,27.2,24.4,29.87,North,0,0.0,0.0,89,0.00,,---,0.00,VWS V14.01,2013-02-05 07:30:00,
2013-02-05 02:00:00,26.9,24.1,29.87,North,0,0.0,0.0,89,0.00,,---,0.00,VWS V14.01,2013-02-05 08:00:00,
2013-02-05 02:30:00,26.3,23.8,29.85,North,0,0.0,0.0,90,0.00,,---,0.00,VWS V14.01,2013-02-05 08:30:00,
2013-02-05 03:00:00,26.1,23.8,29.86,North,0,0.0,0.0,91,0.00,,---,0.00,VWS V14.01,2013-02-05 09:00:00,
2013-02-05 03:30:00,25.9,23.6,29.87,North,0,0.0,0.0,91,0.00,,---,0.00,VWS V14.01,2013-02-05 09:30:00,
2013-02-05 04:00:00,25.5,23.5,29.85,North,0,0.0,0.0,92,0.00,,---,0.00,VWS V14.01,2013-02-05 10:00:00,
2013-02-05 04:30:00,25.1,23.1,29.87,North,0,0.0,1.0,92,0.00,,---,0.00,VWS V14.01,2013-02-05 10:30:00,
2013-02-05 05:00:00,25.5,23.8,29.87,North,0,0.0,0.0,93,0.00,,---,0.00,VWS V14.01,2013-02-05 11:00:00,
2013-02-05 05:30:00,26.5,24.8,29.86,North,0,0.0,0.0,93,0.00,,---,0.00,VWS V14.01,2013-02-05 11:30:00,
2013-02-05 06:00:00,26.9,25.1,29.85,North,0,0.0,0.0,93,0.00,,---,0.00,VWS V14.01,2013-02-05 12:00:00,
2013-02-05 06:30:00,27.5,25.8,29.84,North,0,0.0,4.0,93,0.00,,---,0.00,VWS V14.01,2013-02-05 12:30:00,
2013-02-05 07:00:00,28.1,25.8,29.84,South,180,1.0,5.0,91,0.00,,---,0.00,VWS V14.01,2013-02-05 13:00:00,
2013-02-05 07:30:00,28.1,25.5,29.86,SSW,202,0.0,3.0,90,0.00,,---,0.00,VWS V14.01,2013-02-05 13:30:00,
2013-02-05 08:00:00,28.7,26.1,29.86,South,180,0.0,5.0,90,0.00,,---,0.00,VWS V14.01,2013-02-05 14:00:00,
2013-02-05 08:30:00,30.1,27.0,29.87,South,180,2.0,7.0,88,0.00,,---,0.00,VWS V14.01,2013-02-05 14:30:00,
2013-02-05 09:00:00,31.8,28.1,29.87,South,180,2.0,6.0,86,0.00,,---,0.00,VWS V14.01,2013-02-05 15:00:00,
2013-02-05 09:30:00,34.6,29.1,29.87,South,180,2.0,7.0,80,0.00,,---,0.00,VWS V14.01,2013-02-05 15:30:00,
2013-02-05 10:00:00,35.7,29.2,29.86,South,180,2.0,5.0,77,0.00,,---,0.00,VWS V14.01,2013-02-05 16:00:00,
2013-02-05 10:30:00,38.8,31.6,29.86,South,180,1.0,5.0,75,0.00,,---,0.00,VWS V14.01,2013-02-05 16:30:00,
2013-02-05 11:00:00,43.1,32.5,29.85,South,180,1.0,5.0,66,0.00,,---,0.00,VWS V14.01,2013-02-05 17:00:00,
2013-02-05 11:30:00,47.0,33.8,29.84,SSW,202,1.0,6.0,60,0.00,,---,0.00,VWS V14.01,2013-02-05 17:30:00,
2013-02-05 12:00:00,49.4,34.8,29.83,NW,315,1.0,10.0,57,0.00,,---,0.00,VWS V14.01,2013-02-05 18:00:00,
2013-02-05 12:30:00,51.7,34.7,29.82,NW,315,2.0,9.0,52,0.00,,---,0.00,VWS V14.01,2013-02-05 18:30:00,
2013-02-05 13:00:00,53.8,35.1,29.81,NW,315,1.0,10.0,49,0.00,,---,0.00,VWS V14.01,2013-02-05 19:00:00,
2013-02-05 13:30:00,55.7,35.3,29.80,NW,315,2.0,8.0,46,0.00,,---,0.00,VWS V14.01,2013-02-05 19:30:00,
2013-02-05 14:00:00,57.1,35.4,29.80,NW,315,3.0,9.0,44,0.00,,---,0.00,VWS V14.01,2013-02-05 20:00:00,
2013-02-05 14:30:00,58.3,35.3,29.80,NW,315,2.0,11.0,42,0.00,,---,0.00,VWS V14.01,2013-02-05 20:30:00,
2013-02-05 15:00:00,57.9,35.6,29.81,NW,315,2.0,10.0,43,0.00,,---,0.00,VWS V14.01,2013-02-05 21:00:00,
2013-02-05 15:30:00,56.7,33.9,29.82,NW,315,2.0,11.0,42,0.00,,---,0.00,VWS V14.01,2013-02-05 21:30:00,
2013-02-05 16:00:00,56.2,34.0,29.83,NW,315,2.0,10.0,43,0.00,,---,0.00,VWS V14.01,2013-02-05 22:00:00,
2013-02-05 16:30:00,55.5,34.5,29.84,NW,315,2.0,10.0,45,0.00,,---,0.00,VWS V14.01,2013-02-05 22:30:00,
2013-02-05 17:00:00,54.0,32.6,29.85,NW,315,2.0,11.0,44,0.00,,---,0.00,VWS V14.01,2013-02-05 23:00:00,
2013-02-05 17:30:00,52.3,32.7,29.87,NW,315,2.0,15.0,47,0.00,,---,0.00,VWS V14.01,2013-02-05 23:30:00,
2013-02-05 18:00:00,50.1,32.2,29.89,NNW,338,1.0,9.0,50,0.00,,---,0.00,VWS V14.01,2013-02-06 00:00:00,
2013-02-05 18:30:00,48.2,32.3,29.91,NNW,338,1.0,8.0,54,0.00,,---,0.00,VWS V14.01,2013-02-06 00:30:00,
2013-02-05 19:00:00,47.1,33.1,29.92,NW,315,0.0,5.0,58,0.00,,---,0.00,VWS V14.01,2013-02-06 01:00:00,
2013-02-05 19:30:00,45.9,33.2,29.94,NW,315,0.0,5.0,61,0.00,,---,0.00,VWS V14.01,2013-02-06 01:30:00,
2013-02-05 20:00:00,44.0,33.0,29.95,NW,315,0.0,3.0,65,0.00,,---,0.00,VWS V14.01,2013-02-06 02:00:00,
2013-02-05 20:30:00,41.5,32.5,29.96,NW,315,0.0,0.0,70,0.00,,---,0.00,VWS V14.01,2013-02-06 02:30:00,
2013-02-05 21:00:00,40.3,32.3,29.98,NW,315,0.0,0.0,73,0.00,,---,0.00,VWS V14.01,2013-02-06 03:00:00,
2013-02-05 21:30:00,41.1,32.8,30.00,NW,315,0.0,1.0,72,0.00,,---,0.00,VWS V14.01,2013-02-06 03:30:00,
2013-02-05 22:00:00,41.2,32.9,30.01,NNE,22,1.0,4.0,72,0.00,,---,0.00,VWS V14.01,2013-02-06 04:00:00,
2013-02-05 22:30:00,39.5,31.9,30.02,NNW,338,0.0,2.0,74,0.00,,---,0.00,VWS V14.01,2013-02-06 04:30:00,
2013-02-05 23:00:00,37.8,31.2,30.03,NNW,338,0.0,2.0,77,0.00,,---,0.00,VWS V14.01,2013-02-06 05:00:00,
2013-02-05 23:30:00,36.3,31.0,30.03,NNW,338,0.0,1.0,81,0.00,,---,0.00,VWS V14.01,2013-02-06 05:30:00,